カタログに戻る

STARLINK-31246

運用中通信VLEO
NORAD 58835·PAYLOAD·🇺🇸 United States

打ち上げ Jan 24, 2024 から Vandenberg Space Force Base

Loading…

次のパス (今後24時間)

TLE

最新Source: CelesTrak SupGP

元期: Sep 14, 2026, 20:41 UTC

1 58835C 24017K   26257.86229167  .00042647  00000+0  12604-2 0  2570
2 58835  53.1597  44.2537 0001113  77.5915 112.6202 15.34358884    10

AllMySatでSTARLINK-31246をリアルタイム追跡

Download on the App Store